Volver al catálogo

ATLAS 5 CENTAUR DEB

LostHEO
NORAD 47251·DEBRIS·🇺🇸 United States

Lanzado Oct 17, 2018 desde Cape Canaveral Space Force Station

Loading…

Próximos Pases (próximas 24 horas)

TLE

ObsoletoSource: Space-Track

Época: Feb 6, 2021, 11:36 UTC

1 47251U 18079EK  21037.48375885 -.00000067  00000-0  00000+0 0  9998
2 47251  11.4148 203.5630 4591054   6.7066 357.6879  1.94578946  1348

Sigue ATLAS 5 CENTAUR DEB en tiempo real con AllMySat

Download on the App Store